Погода в Береговом

Россия / Республика Крым     44°54′05″N   33°37′17″E
темп.,
°C
ветер,
м/с
пор.,
м/с
влажн.,
%
обл.,
%
осадки,
мм/ч
давл.,
гПа
погр.,
м
26 февраля, пт
пт2600:00+7юз568799 0.0 1032409
03:00+8зюз4590100 0.1 1031367
06:00+8юз349192 0.1 1030287
09:00+8ююз569195 0.1 1030268
12:00+8юз679097 0.0 1029274
15:00+9юз689076 0.0 1027280
18:00+8ююз68914 0.0 1025280
21:00+8ююз79922 0.0 1025318
27 февраля, сб
сб2700:00+8ююз810910 0.0 1023356
03:00+8ююз810900 0.0 1022387
06:00+8ююз810900 0.0 1020377
09:00+8ююз79880 0.0 1019388
12:00+9юз79870 0.0 1018367
15:00+9юз67893 0.0 1016311
18:00+8з239165 0.0 1016110
21:00+8с797782 0.0 1017690
28 февраля, вс
вс2800:00+7ссз6774100 0.2 1018904
03:00+6ссз796682 0.2 10181027
06:00+5ссз77830 0.0 1019529
09:00+5ссз678148 0.1 1020705
12:00+5ссз5676100 0.1 1021809
15:00+6ссз7772100 0.3 1022940
18:00+6ссз677298 0.2 1023959
21:00+5с676999 0.3 1025961
1 марта, пн
пн100:00+5с5568100 0.1 1026883
03:00+5ссз5572100 0.3 1026756
06:00+4с5579100 0.2 1026630
09:00+3ссв4582100 0.5 1027572
12:00+4с3469100 0.2 1027818
15:00+5ссз4464100 0.3 1028888
18:00+5с666694 0.1 1028964
21:00+4с677089 0.1 1030699
2 марта, вт
вт200:00+3св567433 0.0 1031520
03:00+2ссв557341 0.0 1031535
06:00+2ссв55741 0.0 1032530
09:00+2ссв44751 0.0 1032488
12:00+3с33641 0.0 1033863
15:00+4зсз44590 0.0 1032729
18:00+5сз76630 0.0 1031799
21:00+4сз556811 0.0 1031654